カタログに戻る

OPS 5721

運用中軍事SSO
NORAD 9415·PAYLOAD·🇺🇸 United States

打ち上げ Sep 11, 1976 から Vandenberg Space Force Base

Loading…

次のパス (今後24時間)

TLE

最新Source: Space-Track

元期: Sep 14, 2026, 09:57 UTC

1 09415U 76091A   26257.41524236  .00000092  00000-0  53934-4 0  9990
2 09415  98.3713  44.6219 0017126 359.7535   0.3635 14.27887463365249

AllMySatでOPS 5721をリアルタイム追跡

Download on the App Store